TimeCST,TemperatureF,Dew PointF,Humidity,Sea Level PressureIn,VisibilityMPH,Wind Direction,Wind SpeedMPH,Gust SpeedMPH,PrecipitationIn,Events,Conditions,WindDirDegrees,DateUTC
12:53 AM,28.9,24.1,82,30.22,8.0,North,9.2,-,0.01,,Clear,10,2013-01-02 06:53:00
1:53 AM,28.0,24.1,85,30.25,9.0,North,10.4,-,0.01,,Clear,10,2013-01-02 07:53:00
2:53 AM,27.0,23.0,85,30.25,8.0,NNE,11.5,-,0.01,,Clear,20,2013-01-02 08:53:00
3:53 AM,27.0,21.9,81,30.26,9.0,NNE,9.2,-,N/A,,Clear,20,2013-01-02 09:53:00
4:53 AM,26.1,21.0,81,30.27,9.0,North,6.9,-,0.01,,Clear,10,2013-01-02 10:53:00
6:53 AM,25.0,21.0,85,30.27,8.0,North,8.1,-,0.01,,Clear,10,2013-01-02 12:53:00
7:53 AM,26.1,21.0,81,30.29,8.0,North,5.8,-,0.01,,Clear,10,2013-01-02 13:53:00
8:53 AM,28.0,21.0,75,30.30,8.0,North,9.2,-,N/A,,Clear,10,2013-01-02 14:53:00
9:53 AM,28.9,21.0,72,30.32,10.0,North,8.1,-,0.01,,Clear,10,2013-01-02 15:53:00
10:53 AM,30.0,21.9,72,30.29,10.0,NNE,8.1,-,0.01,,Clear,30,2013-01-02 16:53:00
11:53 AM,30.0,21.0,69,30.29,10.0,North,8.1,-,N/A,,Clear,360,2013-01-02 17:53:00
12:53 PM,32.0,19.9,61,30.25,10.0,North,10.4,-,0.01,,Clear,10,2013-01-02 18:53:00
1:53 PM,33.1,19.0,56,30.23,10.0,North,6.9,-,N/A,,Clear,350,2013-01-02 19:53:00
2:53 PM,33.1,18.0,54,30.23,10.0,North,3.5,-,0.01,,Clear,360,2013-01-02 20:53:00
3:53 PM,32.0,19.9,61,30.25,10.0,NNW,3.5,-,N/A,,Clear,340,2013-01-02 21:53:00
4:53 PM,30.9,19.9,64,30.27,10.0,Calm,Calm,-,0.01,,Clear,0,2013-01-02 22:53:00
5:53 PM,30.9,21.9,69,30.27,10.0,Calm,Calm,-,0.01,,Clear,0,2013-01-02 23:53:00
6:53 PM,30.0,23.0,75,30.29,10.0,Calm,Calm,-,N/A,,Clear,0,2013-01-03 00:53:00
7:53 PM,28.9,24.1,82,30.28,10.0,Calm,Calm,-,N/A,,Clear,0,2013-01-03 01:53:00
8:53 PM,28.0,23.0,81,30.29,10.0,Calm,Calm,-,0.01,,Clear,0,2013-01-03 02:53:00
10:53 PM,28.0,25.0,88,30.30,10.0,Calm,Calm,-,0.01,,Clear,0,2013-01-03 04:53:00
11:53 PM,27.0,25.0,92,30.29,10.0,Calm,Calm,-,N/A,,Clear,0,2013-01-03 05:53:00